Dades meteomassalio
Diari Summary for Maig 8, 2017 Units:  Metric    English   Both
« Previous Day
Next Day »
Diari Semanal Mensual Anual Personalitzat
  Maxima: Minima: Mijana:
Temperatura: -17.8 °C -9.2 °C -5.7 °C
Rosada: -17.8 °C -19.4 °C -18.2 °C
Humitat: Humidity % 14 % 23 %
Velocitat del vent: 0 km/h 0 km/h 10.1 km/h
Racha vent: 0 km/h - -
Vent:- - WNW
Pressio: 0 hPa 34293.4 hPa -
Pluja: 0 mm    
Historical Graphs
 
 
Tabular Data for Maig 8, 2017
Time Temperature Dew Point Pressure Wind Wind Speed Wind Gust Humidity Rainfall Rate (Hourly) solar Conditions
-17.8 °C -17.8 °C 0 hPa Calm     Humidity % 0 mm SolarRadiationWatts/m^2 W/m2 Conditions
18:16 -2.9 °C -18.4 °C 34303.6 hPa NNW 57 km/h 57 km/h 16 % 0 mm 397.0 W/m2 OVC
18:21 -2.9 °C -18.4 °C 34303.6 hPa NW 29.8 km/h 29.8 km/h 16 % 0 mm 497.0 W/m2 CLR
18:26 -2.9 °C -18.4 °C 34303.6 hPa North 29.8 km/h 29.8 km/h 16 % 0 mm 496.0 W/m2 CLR
18:31 -2.7 °C -18.3 °C 34303.6 hPa NNE 29.8 km/h 29.8 km/h 16 % 0 mm 480.0 W/m2 CLR
18:36 -2.7 °C -18.3 °C 34303.6 hPa NW 44.7 km/h 44.7 km/h 16 % 0 mm 429.0 W/m2 CLR
18:41 -2.7 °C -17.7 °C 34293.4 hPa WNW 2.6 km/h 2.6 km/h 17 % 0 mm 353.0 W/m2 CLR
18:46 -2.6 °C -18.7 °C 34293.4 hPa NNW 29.8 km/h 29.8 km/h 15 % 0 mm 341.0 W/m2 CLR
18:51 -2.7 °C -18.7 °C 34293.4 hPa WNW 26.9 km/h 26.9 km/h 15 % 0 mm 406.0 W/m2 CLR
18:56 -2.7 °C -18.7 °C 34293.4 hPa NW 23.3 km/h 23.3 km/h 15 % 0 mm 320.0 W/m2 CLR
19:01 -2.8 °C -18.8 °C 34293.4 hPa NNW 35.7 km/h 35.7 km/h 15 % 0 mm 294.0 W/m2 CLR
19:06 -2.9 °C -18.9 °C 34293.4 hPa NW 35.7 km/h 35.7 km/h 15 % 0 mm 332.0 W/m2 CLR
19:11 -2.9 °C -18.9 °C 34293.4 hPa NNW 7.7 km/h 7.7 km/h 15 % 0 mm 306.0 W/m2 CLR
19:16 -2.7 °C -18.8 °C 34293.4 hPa NNE 7.7 km/h 7.7 km/h 15 % 0 mm 287.0 W/m2 CLR
19:21 -2.7 °C -19.3 °C 34293.4 hPa NW 15 km/h 15 km/h 14 % 0 mm 274.0 W/m2 CLR
19:26 -2.8 °C -19.4 °C 34293.4 hPa NW 29.8 km/h 29.8 km/h 14 % 0 mm 237.0 W/m2 CLR
19:31 -2.9 °C -18.9 °C 34303.6 hPa NNW 31.1 km/h 31.1 km/h 15 % 0 mm 169.0 W/m2 CLR
19:37 -3.2 °C -19.1 °C 34293.4 hPa NNW 20.9 km/h 20.9 km/h 15 % 0 mm 121.0 W/m2 CLR
19:42 -3.2 °C -18.7 °C 34293.4 hPa NNW 9 km/h 9 km/h 16 % 0 mm 176.0 W/m2 CLR
19:47 -3.2 °C -18.7 °C 34303.6 hPa NW 23.8 km/h 23.8 km/h 16 % 0 mm 142.0 W/m2 CLR
19:52 -3.3 °C -18.8 °C 34303.6 hPa NW 23.8 km/h 23.8 km/h 16 % 0 mm 98.0 W/m2 CLR
19:57 -3.4 °C -18.8 °C 34303.6 hPa NW 29.8 km/h 29.8 km/h 16 % 0 mm 90.0 W/m2 CLR
20:02 -3.5 °C -18.9 °C 34303.6 hPa NW 35.7 km/h 35.7 km/h 16 % 0 mm 72.0 W/m2 FEW
20:07 -3.6 °C -19 °C 34303.6 hPa NW 29.8 km/h 29.8 km/h 16 % 0 mm 67.0 W/m2 FEW
20:12 -3.7 °C -19.1 °C 34303.6 hPa NW 29.8 km/h 29.8 km/h 16 % 0 mm 62.0 W/m2 SCT
20:17 -3.8 °C -18.7 °C 34303.6 hPa NNW 26.9 km/h 26.9 km/h 17 % 0 mm 62.0 W/m2 SCT
20:22 -3.8 °C -18.7 °C 34303.6 hPa NW 23.8 km/h 23.8 km/h 17 % 0 mm 54.0 W/m2 SCT
20:27 -3.9 °C -18.4 °C 34303.6 hPa NW 11.9 km/h 11.9 km/h 18 % 0 mm 46.0 W/m2 SCT
20:32 -4 °C -18.4 °C 34303.6 hPa NW 9 km/h 9 km/h 18 % 0 mm 39.0 W/m2 BKN
20:37 -4.1 °C -18.5 °C 34303.6 hPa Calm     18 % 0 mm 33.0 W/m2 BKN
20:42 -4.2 °C -18.6 °C 34303.6 hPa Calm     18 % 0 mm 25.0 W/m2 BKN
20:47 -4.4 °C -18.8 °C 34303.6 hPa Calm     18 % 0 mm 18.0 W/m2 BKN
20:52 -4.6 °C -18.4 °C 34303.6 hPa NW 9 km/h 9 km/h 19 % 0 mm 11.0 W/m2 BKN
20:57 -4.6 °C -18.5 °C 34303.6 hPa Calm     19 % 0 mm 7.0 W/m2 BKN
21:02 -4.7 °C -18.6 °C 34303.6 hPa Calm     19 % 0 mm 0.0 W/m2 OVC
21:07 -4.9 °C -18.4 °C 34303.6 hPa Calm     20 % 0 mm 0.0 W/m2 OVC
21:12 -5.1 °C -18.4 °C 34303.6 hPa Calm     20 % 0 mm 0.0 W/m2 OVC
21:17 -5.2 °C -18.6 °C 34303.6 hPa Calm     20 % 0 mm 0.0 W/m2 CLR
21:22 -5.5 °C -18.5 °C 34313.7 hPa Calm     21 % 0 mm 0.0 W/m2 CLR
21:27 -5.7 °C -18.6 °C 34313.7 hPa Calm     21 % 0 mm 0.0 W/m2 CLR
21:32 -5.8 °C -18.4 °C 34313.7 hPa Calm     22 % 0 mm 0.0 W/m2 CLR
21:37 -6 °C -18.2 °C 34313.7 hPa Calm     23 % 0 mm 0.0 W/m2 CLR
21:42 -6.2 °C -17.8 °C 34313.7 hPa Calm     25 % 0 mm 0.0 W/m2 CLR
21:47 -6.4 °C -18.2 °C 34313.7 hPa Calm     24 % 0 mm 0.0 W/m2 CLR
21:52 -6.6 °C -18.4 °C 34313.7 hPa Calm     24 % 0 mm 0.0 W/m2 CLR
21:57 -6.7 °C -17.9 °C 34313.7 hPa Calm     26 % 0 mm 0.0 W/m2 CLR
22:02 -6.9 °C -17.7 °C 34313.7 hPa Calm     27 % 0 mm 0.0 W/m2 CLR
22:07 -7.1 °C -17.9 °C 34327.3 hPa Calm     27 % 0 mm 0.0 W/m2 CLR
22:12 -7.2 °C -17.7 °C 34327.3 hPa Calm     28 % 0 mm 0.0 W/m2 CLR
22:17 -7.4 °C -17.9 °C 34327.3 hPa Calm     28 % 0 mm 0.0 W/m2 CLR
22:22 -7.4 °C -18.2 °C 34327.3 hPa Calm     27 % 0 mm 0.0 W/m2 CLR
22:27 -7.4 °C -18.2 °C 34327.3 hPa Calm     27 % 0 mm 0.0 W/m2 CLR
22:32 -7.4 °C -17.4 °C 34327.3 hPa Calm     30 % 0 mm 0.0 W/m2 CLR
22:37 -7.7 °C -17.6 °C 34327.3 hPa Calm     30 % 0 mm 0.0 W/m2 CLR
22:42 -7.9 °C -17.3 °C 34327.3 hPa Calm     32 % 0 mm 0.0 W/m2 CLR
22:43 -7.9 °C -17.3 °C 34337.4 hPa Calm     32 % 0 mm 0.0 W/m2 CLR
22:48 -8.2 °C -17.6 °C 34327.3 hPa Calm     32 % 0 mm 0.0 W/m2 CLR
22:53 -8.3 °C -17.4 °C 34337.4 hPa Calm     33 % 0 mm 0.0 W/m2 CLR
22:58 -8.5 °C -17.4 °C 34337.4 hPa Calm     34 % 0 mm 0.0 W/m2 CLR
23:03 -8.7 °C -17.5 °C 34337.4 hPa Calm     34 % 0 mm 0.0 W/m2 CLR
23:08 -8.7 °C -17.6 °C 34337.4 hPa Calm     34 % 0 mm 0.0 W/m2 CLR
23:13 -8.8 °C -17.6 °C 34337.4 hPa Calm     34 % 0 mm 0.0 W/m2 CLR
23:18 -8.9 °C -17.5 °C 34337.4 hPa Calm     35 % 0 mm 0.0 W/m2 CLR
23:23 -9 °C -17.3 °C 34337.4 hPa Calm     36 % 0 mm 0.0 W/m2 CLR
23:28 -9.1 °C -17.4 °C 34337.4 hPa Calm     36 % 0 mm 0.0 W/m2 CLR
23:33 -9.1 °C -17.5 °C 34337.4 hPa Calm     36 % 0 mm 0.0 W/m2 CLR
23:38 -9.2 °C -17.5 °C 34337.4 hPa Calm     36 % 0 mm 0.0 W/m2 CLR
23:43 -9.2 °C -17.6 °C 34337.4 hPa Calm     36 % 0 mm 0.0 W/m2 CLR
23:48 -9.2 °C -17.8 °C 34337.4 hPa Calm     35 % 0 mm 0.0 W/m2 CLR
23:53 -9.2 °C -17.7 °C 34337.4 hPa Calm     35 % 0 mm 0.0 W/m2 CLR
23:58 -9.1 °C -17.7 °C 34337.4 hPa Calm     35 % 0 mm 0.0 W/m2 CLR
Lo Temps de Massalio
Compliments of Weather Underground - 512 kb